Regional Weather Roundup
Issued by NWS New Orleans/Baton Rouge, LA

Home | Current Version | Previous Version | Graphics & Text | Print | Product List | Glossary On
Versions: 1 2 3 4 5 6 7 8 9 10 11 12 13 14 15 16 17 18 19 20 21 22 23 24 25 26 27 28 29 30 31 32 33 34 35 36 37 38 39 40 41 42 43 44 45 46 47 48 49 50
989
ASUS44 KLIX 021705
RWRLIX
NEW ORLEANS REGIONAL WEATHER ROUNDUP
NATIONAL WEATHER SERVICE NEW ORLEANS LA
1100 AM CST MON MAR 02 2015

NOTE: "FAIR" INDICATES FEW OR NO CLOUDS BELOW 12,000 FEET WITH NO
      SIGNIFICANT WEATHER AND/OR OBSTRUCTIONS TO VISIBILITY.
      SKY/WX - SKY CONDITION AND SIGNIFICANT WEATHER.
      TMP - AIR TEMPERATURE.     DP    - DEWPOINT TEMPERATURE.
      RH  - RELATIVE HUMIDITY.   PRES  - PRESSURE.
      HI  - HEAT INDEX.          WCI   - WIND CHILL INDEX.

*  THESE STATIONS ARE NOT NWS OR FAA STATIONS AND ARE NOT UNDER
   NWS QUALITY CONTROL.

LAZ038-040-048-061>063-065>067-069-021800-
SOUTHEAST LOUISIANA

CITY           SKY/WX    TMP DP  RH WIND       PRES   REMARKS
N.O. AUDUBON     N/A     75  73  91 MISG        N/A
N.O. INTL ARPT CLOUDY    73  68  84 S9        30.28S
N.O. LAKEFRONT CLOUDY    77  68  73 S10       30.28S
SLIDELL        CLOUDY    69  67  93 E5        30.28S
BATON ROUGE    FOG       63  62  97 E3        30.27F VSB 1/2
BOOTHVILLE     SUNNY     74  69  85 S13       30.28F
BELLE CHASSE   CLOUDY    75  68  78 S12       30.27F
BOGALUSA*      FOG       63  61  91 CALM      30.31S VSB 1/4
GALLIANO*      CLOUDY    56  55  97 SE5       30.28F FOG
NEW ROADS*     HVY RAIN  55  54  98 NW6       30.29R
GONZALES*      CLOUDY    66  66 100 SE3       30.27F FOG
HAMMOND*       CLOUDY    64  61  88 CALM      30.30F FOG
HOUMA*         CLOUDY    72  70  94 E6        30.28S FOG
PORT FOURCHON* SUNNY     70  70 100 SE12      30.31S

$$

MSZ070-080>082-021800-
SOUTHERN MISSISSIPPI

CITY           SKY/WX    TMP DP  RH WIND       PRES   REMARKS
MCCOMB         CLOUDY    63  61  93 CALM      30.29S FOG
GULFPORT       FOG       64  63  96 SE7       30.29F VSB 1/4
BILOXI         FOG       64  64 100 SE7       30.29S VSB 1/2
PASCAGOULA     CLOUDY    66  65  96 SE6       30.30S
STENNIS ARPT*  CLOUDY    64  61  88 SE5       30.29F FOG

$$

COASTAL OBSERVATIONS
LAKE AND NEARSHORE STATIONS

STATION/POSITION TIME  TEMP    WIND        PRES    WAVE
                       AIR SEA DIR/SP/G            HT/PER
                 (UTC) (F)     (DEG/KT/KT) (MB)    (FT/S)
PASCAGOULA       1700   63      80/  4/  6 1025.5
WAVELAND YACHT   1700   62 54   CALM  /  1 1025.5
GRAND ISLE       1700   65 60  150/  6/  9 1025.8
SOUTHWEST PASS   1700   68 46  140/  7/  9 1025.8
NEW CANAL        1700   74     180/  5/  8 1025.6
SHELL BEACH      1700   71 55  190/  9/ 13 1025.0

OFFSHORE STATIONS

STATION/POSITION TIME  TEMP    WIND        PRES    WAVE
                       AIR SEA DIR/SP/G            HT/PER
                 (UTC) (F)     (DEG/KT/KT) (MB)    (FT/S)
64 S DAUPHIN ISL 1551   71 71  160/ 12/ 12 1026.0    3/ 5

$$




USA.gov is the U.S. government's official web portal to all federal, state and local government web resources and services.